[Iaude] MPEC P47: 2020 PV [a=1.59,e=0.41,i=4.7,H=26.2]

mpec at marsden.cfa.harvard.edu mpec at marsden.cfa.harvard.edu
Tue Aug 11 19:34:09 EDT 2020


M.P.E.C. 2020-P47                               Issued 2020 August 11, 23:32 UT

     The Minor Planet Electronic Circulars contain information on unusual
         minor planets and routine data on comets.  They are published
    on behalf of Division F of the International Astronomical Union by the
          Minor Planet Center, Smithsonian Astrophysical Observatory,
                          Cambridge, MA 02138, U.S.A.

             Prepared using the Tamkin Foundation Computer Network

                              MPC at CFA.HARVARD.EDU
            URL https://www.minorplanetcenter.net/    ISSN 1523-6714

                                    2020 PV                                     


Observations:
     K20P00V* C2020 08 10.39998 22 57 32.68 +30 50 52.0          20.9 GVEP047G96
     K20P00V  C2020 08 10.40515 22 57 43.00 +30 51 58.1          20.8 GVEP047G96
     K20P00V  C2020 08 10.41549 22 58 03.65 +30 54 09.5          20.2 GVEP047G96
     K20P00V  C2020 08 10.46013 22 59 33.46 +31 03 33.3          19.1 GVEP047I52
     K20P00V  C2020 08 10.46183 22 59 36.97 +31 03 54.1          20.0 GVEP047I52
     K20P00V  C2020 08 10.46353 22 59 40.51 +31 04 15.4          19.3 GVEP047I52
     K20P00V  C2020 08 10.46524 22 59 44.00 +31 04 36.7          18.2 GVEP047I52
     K20P00V KC2020 08 10.88632 23 15 33.63 +32 33 46.3          20.8 GVEP047N88
     K20P00V KC2020 08 10.88765 23 15 36.60 +32 34 04.2          20.5 GVEP047N88
     K20P00V KC2020 08 10.95341523 18 28.48 +32 46 47.3          20.1 GVEP047J95
     K20P00V KC2020 08 10.95804823 18 39.30 +32 47 48.1          19.9 GVEP047J95
     K20P00V pC2020 08 11.02212523 21 05.74 +33 02 12.0          20.4 GVEP047L01
     K20P00V pC2020 08 11.02455923 21 11.48 +33 02 43.2          20.2 GVEP047L01
     K20P00V KC2020 08 11.02627323 21 15.47 +33 03 05.0          20.5 GVEP047L01
     K20P00V  C2020 08 11.36962 23 35 43.46 +34 14 21.1          20.9 GVEP047I52
     K20P00V  C2020 08 11.37061 23 35 45.99 +34 14 33.4          20.8 GVEP047I52
     K20P00V  C2020 08 11.37159 23 35 48.47 +34 14 44.9          20.4 GVEP047I52
     K20P00V  C2020 08 11.37258 23 35 50.90 +34 14 57.5          20.4 GVEP047I52
     K20P00V KC2020 08 11.91609 00 01 03.69 +35 55 18.6          20.3 GVEP047104
     K20P00V KC2020 08 11.92399 00 01 26.17 +35 56 46.8          20.2 GVEP047104

Observer details:
104 San Marcello Pistoiese.  Observers P. Bacci, M. Maestripieri, S. Mangano.
    Measurers P. Bacci, L. Tesi, G. Fagioli.  0.60-m reflector + CCD.
G96 Mt. Lemmon Survey.  Observer T. A. Pruyne.  Measurers E. J. Christensen,
    G. A. Farneth, D. C. Fuls, A. R. Gibbs, A. D. Grauer, H. Groeller, R. A.
    Kowalski, S. M. Larson, G. J. Leonard, T. A. Pruyne, D. Rankin, R. L.
    Seaman, F. C. Shelly, K. W. Wierzchos.  1.5-m reflector + 10K CCD.
I52 Steward Observatory, Mt. Lemmon Station.  Observer H. Groeller.  Measurers
    E. J. Christensen, G. A. Farneth, D. C. Fuls, A. R. Gibbs, A. D. Grauer,
    H. Groeller, R. A. Kowalski, S. M. Larson, G. J. Leonard, T. A. Pruyne, D.
    Rankin, R. L. Seaman, F. C. Shelly, K. W. Wierzchos.  1.0-m reflector +
    CCD.
J95 Great Shefford.  Observer P. Birtwhistle.  0.41-m f/6.3 Schmidt-Cassegrain
    + CCD.
L01 Visnjan Observatory, Tican.  Observers K. Korlevic, K. Floricic, F.
    Hrzenjak, A. Macan, I. Paleka, E. Pettarin, V. Pezo, D. Pujagic.  Measurer
    K. Korlevic.  1.0-m f/2.9 reflector + CCD.
N88 Xingming Observatory #3, Nanshan.  Observer X. Gao.  Measurer Q.-Z. Ye.
    0.6-m f/8 Ritchey-Chretien + CCD.

Orbital elements:
2020 PV                                                  Earth MOID = 0.0087 AU
Epoch 2020 May 31.0 TT = JDT 2459000.5                  Veres
M 306.06473              (2000.0)            P               Q
n   0.49037657     Peri.  214.29464     +0.99484537     -0.09332996
a   1.5926350      Node   150.98340     +0.10120628     +0.93823679
e   0.4097147      Incl.    4.68883     -0.00632287     +0.33316849
P   2.01           H   26.2           G   0.15           U   7
Residuals in seconds of arc
200810 G96  0.3+  0.0     200810 N88  0.1-  0.8-    200811 I52  1.1-  0.5-
200810 G96  0.6+  0.0     200810 N88  0.5-  0.6+    200811 I52  0.4-  0.2-
200810 G96  0.6+  0.4-    200810 J95  0.1+  0.1+    200811 I52  0.1+  0.6-
200810 I52  1.5-  0.0     200810 J95  0.2+  0.6+    200811 I52  0.4-  0.0
200810 I52  0.8-  0.5-    200811 L01  0.4-  0.3-    200811 104  0.3+  0.2-
200810 I52  0.3+  0.4-    200811 L01  0.5+  0.1+    200811 104  0.3+  0.2-
200810 I52  0.4+  0.5-    200811 L01  0.4+  0.3+

Ephemeris:
2020 PV                  a,e,i = 1.59, 0.41, 5                   q = 0.9401
Date    TT    R. A. (2000) Decl.     Delta      r    Elong.  Phase     V
2020 07 12    20 00 16.6 -00 38 21   0.1848  1.1890   157.1    19.4    23.9
...
2020 07 27    20 22 21.7 +05 45 58   0.09711 1.1043   155.0    22.9    22.4
...
2020 08 04    21 01 33.7 +13 59 51   0.05656 1.0633   148.7    29.7    21.4
...
2020 08 10    22 44 11.8 +29 25 08   0.03257 1.0352   130.6    48.0    20.6
2020 08 11    23 20 07.7 +32 58 27   0.03003 1.0307   124.3    54.3    20.6
2020 08 12    00 04 50.8 +36 11 26   0.02826 1.0264   116.8    61.8    20.7
...
2020 08 18    04 40 15.6 +30 42 19   0.03636 1.0021    72.7   105.3    22.9
...
2020 08 26    06 20 47.6 +17 04 11   0.07101 0.9750    58.2   118.3    25.1
...
2020 09 10    07 09 31.1 +09 51 21   0.1460  0.9442    60.7   111.5    26.2

M. P. C. Staff               (C) Copyright 2020 MPC           M.P.E.C. 2020-P47




More information about the Iaude mailing list